Location: Fort Wayne
(41.1310°N, 85.1290°W)
Time: 11:16:55
(UTC-04:00)

Courier 1B Rocket - All Passes

Search period start: 25 October 2014 00:00
Search period end: 03 November 2014 23:00
Orbit: 921 x 1202 km, 28.3° (Epoch: 25 October)

Date Brightness Start Highest point End Pass type
(mag) Time Alt. Az. Time Alt. Az. Time Alt. Az.
25 Oct - 03:46:25 10° SSW 03:52:06 23° SSE 03:57:52 10° ESE visible
25 Oct - 05:38:20 10° SW 05:44:58 31° S 05:51:33 10° ESE visible
25 Oct - 07:31:39 10° WSW 07:37:52 27° SSW 07:43:57 10° SE visible
25 Oct - 09:27:02 10° SW 09:30:27 14° SSW 09:33:49 10° S daylight
26 Oct - 02:46:26 10° SSW 02:51:16 18° SSE 02:56:12 10° ESE visible
26 Oct - 04:37:33 10° SW 04:44:01 29° S 04:50:32 10° ESE visible
26 Oct - 06:30:26 10° WSW 06:36:57 30° S 06:43:24 10° SE visible
26 Oct - 08:24:45 10° WSW 08:29:42 18° SSW 08:34:32 10° SSE daylight
27 Oct - 01:47:10 10° S 01:50:30 13° SSE 01:53:54 10° SE night (unlit)
27 Oct - 03:37:00 10° SW 03:43:06 26° SSE 03:49:19 10° ESE visible
27 Oct - 05:29:24 10° WSW 05:36:00 31° S 05:42:38 10° SE visible
27 Oct - 07:23:05 10° WSW 07:28:52 23° SSW 07:34:33 10° SSE visible
28 Oct - 02:36:43 10° SSW 02:42:14 22° SSE 02:47:54 10° ESE night (unlit)
28 Oct - 04:28:32 10° SW 04:35:03 31° S 04:41:41 10° ESE visible
28 Oct - 06:21:44 10° WSW 06:27:58 27° SSW 06:34:11 10° SE visible
28 Oct - 08:17:00 10° SW 08:20:37 14° SSW 08:24:12 10° S daylight
29 Oct - 01:36:51 10° SSW 01:41:26 18° SSE 01:46:10 10° ESE night (unlit)
29 Oct - 03:27:51 10° SW 03:34:07 29° S 03:40:35 10° ESE visible
29 Oct - 05:20:36 10° WSW 05:27:03 29° S 05:33:33 10° SE visible
29 Oct - 07:14:49 10° WSW 07:19:49 18° SSW 07:24:47 10° SSE visible
30 Oct - 00:37:45 10° S 00:40:43 13° SSE 00:43:46 10° SE night (unlit)
30 Oct - 02:27:23 10° SW 02:33:14 26° SSE 02:39:19 10° ESE night (unlit)
30 Oct - 04:19:39 10° WSW 04:26:06 31° S 04:32:43 10° SE visible
30 Oct - 06:13:14 10° WSW 06:18:58 23° SSW 06:24:43 10° SSE visible
31 Oct - 01:27:12 10° SSW 01:32:25 22° SSE 01:37:51 10° ESE night (unlit)
31 Oct - 03:18:53 10° SW 03:25:10 30° S 03:31:42 10° ESE visible
31 Oct - 05:11:58 10° WSW 05:18:04 26° SSW 05:24:17 10° SE visible
31 Oct - 07:07:09 10° SW 07:10:45 14° SSW 07:14:21 10° S visible
01 Nov - 00:27:26 10° SSW 00:31:41 17° SSE 00:36:05 10° ESE night (unlit)
01 Nov - 02:18:18 10° SW 02:24:17 28° S 02:30:33 10° ESE night (unlit)
01 Nov - 04:10:56 10° WSW 04:17:09 29° S 04:23:34 10° SE visible
01 Nov - 06:05:03 10° WSW 06:09:56 18° SSW 06:14:51 10° SSE visible
01 Nov - 23:28:31 10° S 23:31:01 12° SSE 23:33:34 10° SE night (unlit)
02 Nov - 01:17:55 10° SW 01:23:27 25° SSE 01:29:16 10° ESE night (unlit)
02 Nov - 02:10:05 10° WSW 02:16:14 30° S 02:22:41 10° SE visible
02 Nov - 04:03:33 10° WSW 04:09:05 22° SSW 04:14:44 10° SSE visible
02 Nov - 23:17:49 10° SSW 23:22:42 21° SSE 23:27:48 10° ESE night (unlit)
03 Nov - 01:09:24 10° SW 01:15:22 29° S 01:21:39 10° ESE night (unlit)
03 Nov - 03:02:23 10° WSW 03:08:12 25° SSW 03:14:14 10° SE visible
03 Nov - 04:57:33 10° SW 05:00:53 13° SSW 05:04:15 10° S visible
03 Nov - 22:18:08 10° SSW 22:22:01 16° SSE 22:26:02 10° ESE night (unlit)
